Location: *
(48.8591°S, 177.0890°W)
Time: 03:14:40
(UTC+00:00)

Daily predictions for brighter satellites

Satellite Brightness Start Highest point End
(mag) Time Altitude Azimuth Time Altitude Azimuth Time Altitude Azimuth
AQUARIUS 4.2 06:18:49 10° SSE 06:23:26 77° ENE 06:27:57 10° N
Cosmos 1703 Rocket 3.6 06:21:00 10° N 06:25:26 71° E 06:30:00 10° SSE
SL-27 R/B 2.6 06:25:43 10° N 06:28:51 44° ENE 06:32:03 10° SSE
Cosmos 1953 4.2 06:27:22 10° SSE 06:29:39 14° ESE 06:31:54 10° E
ERBS 4.2 06:27:56 10° SW 06:30:03 17° S 06:32:10 10° SE
Uosat 12 SS-18 rocket 4.1 06:26:02 10° NNW 06:30:57 72° NE 06:35:16 10° SE
USA 234 3.8 06:24:37 10° SE 06:31:09 62° SSW 06:37:38 10° W
Cosmos 1674 3.5 06:29:05 10° NNE 06:32:19 29° E 06:35:36 10° SSE
Cosmos 2034 Rocket 4.1 06:26:57 10° N 06:33:14 87° W 06:39:34 10° S
Okean O Rocket 3.2 06:31:11 10° SE 06:33:42 15° E 06:36:12 10° ENE
CORIOLIS 4.3 06:29:29 10° SSE 06:35:03 90° WSW 06:40:34 10° NNW
IRIDIUM 106 4.4 06:29:46 10° S 06:35:07 88° E 06:40:24 10° N
CZ-4C R/B 3.0 06:33:04 10° NNE 06:36:32 72° ESE 06:40:06 10° S
Cosmos 1908 Rocket 4.3 06:32:05 10° SSW 06:36:35 61° W 06:40:58 10° N
Cosmos 2237 Rocket 3.2 06:31:38 10° SSW 06:36:43 31° SE 06:41:45 10° ENE
Meteor PRIRODA 4.2 06:33:49 10° S 06:37:34 65° WSW 06:41:16 10° NNW
USA 308 3.8 06:33:42 10° WSW 06:37:41 40° S 06:41:39 10° ESE
Cosmos 2360 Rocket 3.6 06:33:35 10° SW 06:38:57 43° WNW 06:44:17 10° N
Okean 1-7 3.3 06:35:27 10° NNW 06:39:48 76° W 06:44:15 10° S
Cosmos 1437 Rocket 4.0 06:37:13 10° SSW 06:41:14 48° W 06:45:08 10° N
CZ-2D R/B 4.5 06:38:32 10° S 06:42:20 48° WSW 06:46:05 10° NW
SJ-11-01 4.3 06:38:20 10° SSE 06:43:07 88° E 06:47:50 10° NNW
Cosmos 1300 Rocket 3.7 06:38:59 10° S 06:43:20 52° ESE 06:47:36 10° NNE
Cosmos 1782 Rocket 3.6 06:39:38 10° S 06:44:10 89° E 06:48:34 10° N
NOAA 6 4.0 06:39:06 10° SSE 06:44:20 82° ENE 06:49:30 10° NNW
In-Cosmos 22 4.3 06:39:13 10° N 06:44:33 55° E 06:50:05 10° SSE
ADEOS 4.1 06:39:22 10° S 06:44:40 69° WSW 06:49:53 10° NNW
COSMOS 2428 2.7 06:40:59 10° SSW 06:46:46 75° ESE 06:52:29 10° NE
Cosmos 405 Rocket 4.3 06:45:23 10° NW 06:49:00 40° WSW 06:52:37 10° S
YAOGAN 1 3.6 06:46:15 10° SE 06:49:56 25° E 06:53:35 10° NNE
Alouette 2 Rocket 3.5 06:46:41 10° N 06:51:21 60° ENE 06:55:02 10° SSE
Okean 2 Rocket 3.9 06:47:25 10° S 06:51:27 32° ESE 06:55:22 11° NE
SJ 16-02 1.5 06:48:04 10° SSW 06:52:35 80° WNW 06:57:02 10° NNE
Cosmos 1300 4.4 06:50:27 10° SSE 06:53:05 17° ESE 06:54:37 14° E
KORONAS-FOTON 3.8 06:50:41 10° N 06:54:26 56° E 06:58:12 10° SSE
Meteor 1-21 4.2 06:50:51 10° N 06:56:24 63° E 07:02:02 10° SSE
Cosmos 1777 Rocket 4.0 06:52:06 10° SSW 06:57:30 77° ESE 07:02:48 10° NNE
NOSS 0 Rocket 4.1 06:51:50 10° SSW 06:58:05 62° SE 07:04:03 11° NE
CZ-4C R/B 4.0 06:53:09 10° NNE 06:58:54 21° ENE 07:04:08 10° ESE
ARGOS 3.8 06:55:41 10° S 07:01:06 62° WSW 07:06:25 10° NNW
Okean 2 3.6 06:58:45 10° NNE 07:02:44 48° E 07:06:45 10° SSE
CZ-4B R/B 3.7 06:58:05 10° SSE 07:03:05 36° E 07:07:58 10° NNE
Cosmos 1707 2.9 07:00:49 10° NNW 07:04:42 78° W 07:08:41 10° S
USA 305 3.5 07:01:54 10° WSW 07:05:56 46° SSE 07:08:59 16° E
CZ-4B R/B 4.2 07:01:59 10° S 07:05:58 46° WSW 07:10:07 10° NW
X-37B 3.1 07:05:16 10° NW 07:06:10 11° NNW 07:07:04 10° N
PAYLOAD B 4.3 07:03:49 10° SSE 07:09:26 58° ENE 07:14:58 10° N
Cosmos 1626 2.0 07:07:27 10° N 07:11:08 81° E 07:14:53 10° SSE
PSLV R/B 4.1 07:08:39 11° NNE 07:12:37 58° ESE 07:16:50 10° S
Cosmos 2279 Rocket 4.0 07:06:46 10° N 07:12:58 63° E 07:19:13 10° SSE
Geosat 4.0 07:08:40 10° NNE 07:13:44 88° WNW 07:18:51 10° SSW
Cosmos 1271 Rocket 3.8 07:11:36 10° S 07:14:52 26° ESE 07:15:57 23° E
Meteor 1-16 Rocket 4.1 07:10:44 10° S 07:16:06 61° ESE 07:21:20 11° NNE
SL-16 R/B 3.6 07:12:11 10° S 07:16:50 24° SE 07:19:50 17° E
Cosmos 2142 Rocket 4.4 07:10:49 10° N 07:16:54 66° E 07:23:04 10° SSE
Kosmos-1675 4.3 07:10:13 10° SW 07:17:23 76° WNW 07:20:43 14° NNE
Cosmos 1634 Rocket 4.2 07:11:44 10° N 07:18:03 82° W 07:24:30 10° S
Cosmos 2151 Rocket 3.8 07:14:36 10° S 07:19:06 52° ESE 07:22:25 17° NNE
Lacrosse 5 rocket 1.1 07:16:09 10° NW 07:19:44 54° NE 07:22:29 17° ESE
APEX 3.8 07:16:19 10° SSW 07:21:11 53° SE 07:23:20 26° ENE
H-2A R/B 2.1 07:19:39 13° NNE 07:23:44 72° ESE 07:28:19 10° S
Meteor 2-10 Rocket 4.0 07:18:47 10° S 07:23:49 43° ESE 07:26:59 22° NE
CZ-4B DEB 4.3 07:18:21 10° SSE 07:23:58 86° WSW 07:29:28 10° NNW
Cosmos 1758 3.7 07:20:38 10° SSW 07:24:40 65° W 07:28:37 10° N
Genesis I 3.4 07:21:08 10° NW 07:24:46 66° SW 07:28:27 10° SE
Cosmos 1908 3.4 07:21:58 10° SSW 07:25:55 76° W 07:29:46 10° N
Aureole 3 Rocket 3.2 07:25:25 26° NE 07:26:47 35° E 07:29:51 10° SSE
Cosmos 990 Rocket 4.4 07:22:45 10° SSW 07:27:47 45° ESE 07:30:22 25° ENE
PSLV R/B 4.0 07:24:23 10° S 07:28:31 78° WSW 07:32:30 10° NNW
CENTAUR R/B 4.5 07:23:08 10° W 07:29:21 28° SSW 07:34:42 10° SE
CZ-4B R/B 1.7 07:33:07 37° ESE 07:33:08 37° ESE 07:35:59 10° S
Sich 1 Rocket 3.6 07:29:17 10° S 07:33:55 86° W 07:38:12 11° N
Cosmos 1607 4.3 07:30:37 10° SW 07:36:58 64° WNW 07:42:06 16° NNE
Okean-O 4.2 07:33:41 10° SE 07:35:47 18° ESE 07:35:47 18° ESE
USA 276 1.8 07:36:01 10° WNW 07:39:02 72° NNE 07:39:22 63° ENE
FALCON 9 DEB 3.6 07:36:49 10° NW 07:39:25 38° N 07:39:25 38° N
Cosmos 1674 Rocket 3.6 07:38:37 15° N 07:42:16 56° E 07:46:43 10° SSE
USA 307 3.2 07:38:24 10° WSW 07:42:30 54° SSE 07:44:03 33° ESE
IRAS Rocket 4.5 07:39:48 27° NE 07:42:48 54° ESE 07:48:18 10° S
ATLAS 3B R/B 3.0 07:38:35 10° N 07:45:36 47° ENE 07:52:16 10° SE
SL-14 R/B 3.2 07:45:43 14° N 07:49:15 76° E 07:53:23 10° SSE
Cosmos 1898 Rocket 3.9 07:44:32 10° SSW 07:49:35 45° ESE 07:51:09 35° ENE
Cosmos 468 Rocket 4.5 07:48:42 32° NE 07:50:02 38° ENE 07:54:58 10° SE
CZ-4 R/B 1.2 07:46:19 10° SSE 07:50:21 72° ENE 07:53:19 18° N
Cosmos 2227 Rocket 2.7 07:49:17 31° NE 07:50:47 36° ENE 07:55:57 10° SE
ATLAS 5 CENTAUR R/B 2.0 07:45:16 10° SW 07:51:11 77° NW 07:53:24 33° NNE
USA 306 3.0 07:50:53 10° WSW 07:55:02 65° SSE 07:56:02 47° E
SJ-6B 4.0 07:53:52 10° SSE 07:56:12 28° SE 07:56:12 28° SE
Cosmos 1980 3.8 07:54:44 10° SSW 08:00:28 76° WNW 08:03:27 29° NNE
Cosmos 540 Rocket 4.4 08:03:34 30° ESE 08:03:34 30° ESE 08:06:53 10° SE
Cosmos 2221 Rocket 3.9 07:57:35 10° NNW 08:02:11 71° W 08:06:49 10° S
Cosmos 2219 Rocket 4.4 07:58:18 10° SW 08:02:32 22° W 08:06:45 10° NNW
Cosmos 2297 Rocket 2.1 07:59:14 10° NNW 08:04:51 67° ENE 08:10:32 10° SSE
ERBS 3.3 08:02:34 10° SW 08:04:52 34° S 08:04:52 34° S
Cosmos 1953 2.7 08:02:18 10° SSW 08:06:23 64° W 08:08:02 34° NNW
Cosmos 1238 Rocket 3.6 08:01:01 10° S 08:06:53 63° ESE 08:08:13 47° NE
Okean O Rocket 1.9 08:06:05 10° S 08:10:32 69° WSW 08:14:55 10° NNW
Cosmos 1378 Rocket 3.6 08:08:26 19° NNW 08:11:34 76° W 08:16:00 10° S
USA 234 4.2 08:07:56 13° ESE 08:13:35 44° S 08:19:47 10° WSW
CSL-04 Debris 4.2 08:11:55 10° SSE 08:17:26 57° E 08:18:25 50° NE
USA 308 2.8 08:13:19 10° WSW 08:17:30 74° SSE 08:17:39 72° SE
Cosmos 1655 Rocket 4.1 08:11:25 10° SSW 08:17:53 78° W 08:21:59 24° N
Cosmos 1763 Rocket 3.4 08:14:58 13° NNW 08:19:42 75° ENE 08:25:04 10° SSE
Cosmos 2237 Rocket 2.7 08:15:30 10° SW 08:21:09 58° WNW 08:23:39 32° N
Meteor 1-24 Rocket 4.2 08:21:42 42° E 08:21:42 42° E 08:27:00 10° SSE
Okean 1 Rocket 3.2 08:18:12 10° SSW 08:22:37 69° W 08:23:32 52° NNW
SL-8 R/B 3.9 08:18:15 10° WNW 08:22:31 54° N 08:22:31 54° N
USA 186 3.9 08:20:24 10° SSE 08:21:31 20° SSE 08:21:31 20° SSE
YAOGAN 1 4.0 08:22:01 10° S 08:26:07 39° WSW 08:30:11 10° NW
Cosmos 1455 Rocket 3.6 08:21:55 10° S 08:25:33 45° SE 08:25:33 45° SE
Cosmos 1300 3.7 08:25:09 10° SSW 08:28:51 43° W 08:29:28 40° WNW
Cosmos 372 Rocket 4.1 08:29:33 10° SSW 08:34:50 60° ESE 08:34:57 60° ESE
Cosmos 220 Rocket 4.3 08:30:28 10° SSW 08:34:55 63° WNW 08:35:11 61° NW
Cosmos 2219 3.1 08:42:08 71° ENE 08:42:08 71° ENE 08:47:48 10° SSE
Landsat 7 4.4 08:37:31 10° SSE 08:41:02 46° SE 08:41:02 46° SE
USA 81 4.1 08:43:32 59° NNW 08:44:34 81° W 08:49:59 10° S
USA 305 3.6 08:41:20 10° WSW 08:44:31 49° W 08:44:31 49° W
CZ-4C R/B 2.8 08:38:30 10° NNW 08:46:52 75° NE 08:53:51 10° SE
CSL-04 Rocket 3.5 08:42:48 10° SSE 08:48:15 87° ENE 08:48:40 77° N
Cosmos 1455 3.9 08:45:41 10° S 08:47:40 28° S 08:47:40 28° S
Cosmos 1271 Rocket 4.5 08:47:27 10° SW 08:50:42 27° W 08:50:59 26° W
Meteor 2-5 Rocket 3.6 08:50:46 77° ENE 08:50:57 78° E 08:56:52 10° SSE
Cosmos 2263 Rocket 4.5 08:55:43 11° SE 08:55:43 11° SE 08:55:59 10° SE
Resurs 01 Rocket 3.6 08:48:31 10° SSE 08:50:00 20° SSE 08:50:00 20° SSE
IGS 5A 4.2 08:52:31 10° S 08:56:09 52° SW 08:56:09 52° SW
Cosmos 1244 Rocket 4.3 08:51:16 10° S 08:57:34 85° E 08:58:09 75° NNE
Lacrosse 5 rocket 2.8 08:55:22 10° W 08:58:02 32° SW 08:58:02 32° SW
SL-16 R/B 2.1 08:55:50 10° SSW 09:01:37 79° WNW 09:01:43 79° NW
CZ-4B R/B 4.4 09:05:13 11° WSW 09:05:13 11° WSW 09:05:50 10° WSW
Cosmos 1937 Rocket 3.7 08:59:53 10° SSW 09:04:59 64° W 09:04:59 64° W
Cosmos 44 3.9 09:07:55 10° SW 09:12:22 58° S 09:12:22 58° S
Okean-O 3.6 09:09:28 10° S 09:13:21 47° SW 09:13:21 47° SW
CENTAUR R/B 4.5 09:17:08 10° SW 09:22:02 21° S 09:25:32 13° SE
Cosmos 1745 Rocket 4.1 09:16:37 10° S 09:22:20 65° SE 09:22:20 65° SE
CZ-4 R/B 4.4 09:22:42 10° SSW 09:24:46 14° WSW 09:26:50 10° W
ATLAS 5 CENTAUR R/B 4.3 09:32:18 10° W 09:34:28 13° WNW 09:34:52 12° WNW
Cosmos 2227 Rocket 3.2 09:30:39 17° WNW 09:34:44 45° SW 09:40:15 10° SSE
Cosmos 1943 3.9 09:29:14 10° SSW 09:33:43 49° S 09:33:43 49° S
ATLAS 3B R/B 3.4 09:29:10 10° WNW 09:36:20 54° SW 09:43:06 10° SE
BREEZE-M DEB (TANK) 3.9 09:24:35 10° W 09:36:46 63° NW 09:36:46 63° NW
Cosmos 1603 4.5 09:36:00 10° SSW 09:40:31 48° SSE 09:40:31 48° SSE
Cosmos 2297 Rocket 4.1 09:44:35 10° WNW 09:49:24 27° SW 09:54:16 10° SSE
USA 234 3.7 09:55:15 53° SE 09:55:57 55° SSE 10:02:22 10° WSW
Cosmos 1709 Rocket 4.4 09:52:52 10° S 09:58:01 59° S 09:58:01 59° S
NOSS 3-1 (C) 4.3 10:07:19 10° NW 10:16:17 70° SW 10:23:53 10° SE
Resurs 01 Rocket 4.1 10:25:30 10° S 10:27:33 20° SSW 10:27:33 20° SSW
Cosmos 2263 Rocket 3.7 10:37:20 32° S 10:37:20 32° S 10:40:27 10° SSE
CZ-4C R/B 3.9 10:28:35 10° WNW 10:35:59 41° SSW 10:42:09 10° SE
Terra 4.2 10:38:32 10° SSE 10:39:58 20° SSE 10:39:58 20° SSE
CENTAUR R/B 3.8 11:08:46 10° SW 11:12:41 31° S 11:12:41 31° S
CZ-2D R/B 4.1 11:26:36 23° SSE 11:26:36 23° SSE 11:29:08 10° S
Resurs 1-4 Rocket 4.1 11:26:46 24° SSE 11:26:46 24° SSE 11:29:28 10° S
Cosmos 1833 Rocket 4.4 11:27:03 10° SSW 11:30:17 29° S 11:30:17 29° S
Cosmos 2082 Rocket 4.0 11:44:50 10° SSW 11:49:09 26° SE 11:49:09 26° SE
